Погода в Нерли

Россия / Тверская область     57°02′38″N   37°59′20″E
темп.,
°C
ветер,
м/с
пор.,
м/с
влажн.,
%
обл.,
%
осадки,
мм/ч
давл.,
гПа
погр.,
м
9 мая, вс
вс900:00+7зсз3798100 1.0 1002349
03:00+6сз61295100 1.1 1004653
06:00+4сз71297100 0.2 1006650
09:00+3ссз71292100 0.3 1009880
12:00+6ссз71284100 0.6 10111061
15:00+10ссз71157100 0.6 10131976
18:00+10ссз6115897 0.0 10151547
21:00+6сз412715 0.0 1018275
10 мая, пн
пн1000:00+4ссз412700 0.0 1021262
03:00+1ссз39760 0.0 1024149
06:00+2ссз26740 0.0 1027153
09:00+8с34560 0.0 1028593
12:00+11с34451 0.0 10281371
15:00+13с34420 0.0 10281379
18:00+13с24540 0.0 1028619
21:00+7св22665 0.0 102913
11 мая, вт
вт1100:00+5вюв22730 0.0 103010
03:00+5св22765 0.0 103010
06:00+6в23755 0.0 103183
09:00+12всв35568 0.0 1031511
12:00+15всв4646100 0.0 1030914
15:00+17всв4544100 0.0 10291060
18:00+16всв466157 0.0 1028368
21:00+11в36760 0.0 102982
12 мая, ср
ср1200:00+9в34840 0.0 102959
03:00+9в35880 0.0 102882
06:00+10всв398755 0.0 1028206
09:00+17в610735 0.0 1026538
12:00+19вюв6106982 0.1 1026999
15:00+20вюв8106563 0.3 10251294
18:00+19вюв6117528 0.1 10241061
21:00+14вюв388721 0.3 1024182
13 мая, чт
чт1300:00+13в3889100 0.0 1023192
03:00+14вюв41191100 0.1 1022410
06:00+14вюв5119056 0.1 1022514
09:00+15юв598635 0.3 1022644
12:00+19ююв697145 0.9 10211244
15:00+20ююв596664 2.6 10201431
18:00+19юв4874100 0.7 1019508
21:00+14юв34905 1.1 101967